Location: Rio de Janeiro
(22.9068°S, 43.1729°W)
Time: 13:13:43
(UTC-03:00)

Hubble Space Telescope - Pass Details

Date: 30 November 2023
Orbit: 515 x 519 km, 28.5° (Epoch: 02 March)

Event Time Altitude Azimuth Distance (km) Brightness Sun altitude
Exits shadow 02:04:06 11° 98° (E) 1,732 3.9 -33.5°
Drops below altitude 10° 02:04:11 10° 98° (E) 1,762 3.9 -33.5°
Enters shadow 03:04:14 -65° 287° (WNW) 12,083 7.6 -23.5°
Maximum altitude 03:41:02 53° 193° (SSW) 647 1.2 -16.6°
